Location: Alto del Rubio
(33.4167°S, 71.4833°W)
Time: 20:52:21
(UTC+00:00)

Daily predictions for brighter satellites

Satellite Brightness Start Highest point End
(mag) Time Altitude Azimuth Time Altitude Azimuth Time Altitude Azimuth
Gbstr 26 Del rocket 4.3 22:06:29 10° SW 22:12:51 40° SSE 22:18:01 10° ENE
SKYMED 2 3.8 22:10:39 10° N 22:15:00 81° WNW 22:19:26 10° SSW
BREEZE M DEB (TANK) 3.5 22:04:47 10° NW 22:16:07 74° SW 22:19:32 10° SE
Cosmos 1867 4.0 22:10:55 10° NW 22:16:17 66° WSW 22:21:40 10° SSE
GPS 2-04 Rocket1 2.8 22:16:35 10° W 22:20:14 67° NNW 22:23:43 10° ENE
Cosmos 1805 3.6 22:18:56 10° NNE 22:22:40 45° E 22:26:27 10° SSE
Radarsat Rocket 4.4 22:17:20 10° SSE 22:22:52 41° E 22:28:25 10° N
H-2A R/B 2.9 22:21:36 10° SSE 22:25:25 55° E 22:29:08 10° N
Cosmos 841 Rocket 4.1 22:20:11 10° SSW 22:25:27 65° WNW 22:30:37 10° N
SMAP 3.8 22:24:20 10° SSE 22:28:35 33° E 22:32:47 10° NNE
Chunghua 1 4.5 22:25:10 10° WSW 22:28:53 81° S 22:32:40 10° E
CZ-4B DEB 4.3 22:24:43 10° SSE 22:30:22 88° WSW 22:35:57 10° NNW
Cosmos 968 Rocket 3.5 22:26:10 10° NNW 22:31:22 83° ENE 22:36:41 10° SSE
ISS -1.4 22:31:19 10° SSE 22:31:36 10° SSE 22:31:51 10° SSE
Centaur D AC-29 3.5 22:26:50 10° W 22:32:05 25° NNW 22:35:10 10° NE
ASTRO E2 4.2 22:29:04 10° W 22:32:46 35° NNW 22:36:27 10° NE
Cosmos 1486 Rocket 4.2 22:27:38 10° NNW 22:32:52 76° WSW 22:38:11 10° SSE
Okean O Rocket 1.8 22:28:57 10° SSE 22:33:22 53° E 22:37:42 10° N
Cosmos 1766 3.3 22:33:18 10° N 22:37:07 59° E 22:41:00 10° SSE
Cosmos 1455 Rocket 4.1 22:34:10 10° NE 22:37:54 26° E 22:41:40 10° SSE
USA 215 3.3 22:31:28 10° NE 22:38:01 87° NW 22:44:37 10° SW
H-2A R/B 4.1 22:35:38 10° S 22:39:17 34° WSW 22:43:00 10° NW
CZ-2C R/B 4.1 22:39:25 10° E 22:41:57 14° ESE 22:44:30 10° SE
PAYLOAD B 4.4 22:36:34 10° SSE 22:42:13 83° WSW 22:47:50 10° NNW
Cosmos 1833 4.4 22:39:44 10° NNW 22:45:29 77° WSW 22:51:19 10° SSE
Cosmos 2322 Rocket 2.2 22:40:00 10° SSW 22:45:44 88° WNW 22:51:22 10° NNE
GEOS 3 Rocket 3.7 22:41:35 10° NE 22:46:40 53° SE 22:51:42 10° SSW
USA 116 4.3 22:46:06 10° N 22:50:58 76° WNW 22:55:20 10° SSW
Meteor 2-19 Rocket 4.4 22:44:51 10° S 22:51:03 68° E 22:57:07 10° NNE
Cosmos 2237 4.3 22:45:49 10° SSW 22:51:29 57° ESE 22:57:05 10° NE
Okean-O 4.4 22:52:00 14° E 22:52:00 14° E 22:54:08 10° NE
SL-24 R/B - RUBIN 2 3.6 22:48:34 10° SSW 22:52:59 87° ESE 22:57:48 10° NNE
Meteor 1-22 Rocket 4.2 22:48:26 10° N 22:53:54 67° E 22:59:39 10° SSE
MOS 1 Rocket 4.5 22:50:12 10° NE 22:54:43 27° ESE 22:59:18 10° SSE
Cosmos 2292 Rocket 3.0 22:52:49 10° S 22:56:02 44° E 22:58:54 10° NNE
NOAA 12 4.3 22:51:25 10° SSE 22:56:36 52° E 23:01:44 10° N
CENTAUR R/B 3.6 22:49:47 10° NW 22:57:57 57° WSW 23:05:07 10° SSE
Envisat 2.9 22:54:32 10° SSE 22:59:43 78° ENE 23:04:48 10° N
NOSS 3-3 (A) 3.8 22:53:47 10° SSW 23:00:01 68° ESE 23:05:38 10° NE
NOSS 3-3 (C) 3.8 22:53:53 10° SSW 23:00:07 66° ESE 23:05:44 10° NE
ARGOS Delta rocket 4.0 22:56:05 10° SSE 23:00:20 42° E 23:04:31 10° NNE
Cosmos 1354 Rocket 4.0 22:55:30 10° NNW 23:00:48 89° WSW 23:06:09 10° SSE
Cosmos 1626 2.7 23:00:25 10° SSE 23:03:55 35° E 23:07:21 10° NNE
Cosmos 1470 3.4 23:01:08 10° NNE 23:04:47 34° E 23:06:21 25° SE
Meteor 2-5 Rocket 3.6 22:59:22 10° S 23:05:02 75° E 23:10:43 10° NNE
Cosmos 1655 Rocket 4.1 22:59:52 10° S 23:06:11 80° W 23:12:29 10° N
OAO 1 4.5 23:00:52 10° WNW 23:06:24 88° S 23:09:41 25° ESE
Cosmos 1674 3.2 23:02:42 10° SSW 23:06:32 62° W 23:10:20 10° N
COSMOS 2428 3.8 23:03:57 10° S 23:08:10 22° SE 23:08:10 22° SE
Cosmos 2297 Rocket 4.0 23:06:05 10° NE 23:07:24 13° ENE 23:07:24 13° ENE
SL-24 R/B 3.8 23:06:06 10° NNE 23:10:08 57° ESE 23:13:52 10° S
TELKOM 3 4.3 23:08:13 10° WSW 23:10:53 51° NW 23:14:13 10° NE
Cosmos 2322 4.1 23:05:54 10° S 23:11:15 39° ESE 23:16:34 10° NE
Helios 1A Rocket 3.1 23:11:47 22° SSE 23:14:17 52° E 23:18:20 10° N
Sakura Rocket 3.5 23:15:08 10° WNW 23:18:50 40° N 23:20:10 28° NE
Cosmos 1544 Rocket 3.6 23:15:21 10° N 23:19:43 57° E 23:22:18 24° SSE
Cosmos 2219 Rocket 2.9 23:14:57 10° S 23:19:54 30° ESE 23:19:59 30° ESE
Cosmos 1437 4.3 23:18:29 10° SSW 23:21:19 34° W 23:24:07 10° NNW
Cosmos 2360 Rocket 2.2 23:17:07 10° SSW 23:22:48 83° WNW 23:28:25 10° NNE
Cosmos 2333 4.3 23:17:51 10° S 23:23:20 48° ESE 23:28:43 10° NE
Aureole 3 Rocket 4.3 23:18:39 10° NNE 23:25:01 39° E 23:26:24 34° ESE
Meteor 1-24 Rocket 3.6 23:20:15 10° S 23:25:44 85° E 23:31:20 10° N
Cosmos 2098 Rocket 4.4 23:22:27 10° S 23:30:02 87° W 23:37:10 10° N
Cosmos 1340 Rocket 4.4 23:28:08 10° NNE 23:29:39 20° NNE 23:29:39 20° NNE
Feng Yun 1-1 Rocket 4.3 23:28:13 10° SSE 23:34:07 83° ENE 23:40:02 10° NNW
Cosmos 2333 Rocket 2.4 23:28:58 10° S 23:34:25 44° ESE 23:35:15 42° E
ATLAS 3B R/B 3.1 23:28:49 10° NW 23:36:10 69° WSW 23:42:04 17° SSE
YAOGAN 6 4.3 23:33:59 10° S 23:37:10 32° WSW 23:40:19 10° NW
Cosmos 1758 3.1 23:35:29 10° N 23:39:29 85° E 23:39:59 67° SSE
Cosmos 967 Rocket 4.5 23:36:35 10° SSW 23:42:51 57° ESE 23:45:16 36° ENE
SL-4 R/B 4.2 23:41:27 10° N 23:43:38 19° NNE 23:43:38 19° NNE
ERBS 4.5 23:43:23 10° W 23:46:00 20° SW 23:46:31 19° SSW
Cosmos 2227 Rocket 3.8 23:47:03 10° NNE 23:49:06 20° NNE 23:49:06 20° NNE
